Date String (YYYY-MM-DD hh:mm:ss) UTC,Instrument flags,Ambient pressure (hPa),Sample flow (lpm),Bypass flow (lpm),Sample temperature (°C),Ambient temperature (°C),ASC tube jacket temperature (°C),LED temperature (°C),Box temperature (°C),Sample RH (%),Span deviation,Mass concentration (μg/m³),Mass concentration (μg/m³),Mass concentration (μg/m³)
DateTimeUTC,F1_M11,P_M11,Q1_M11,Q2_M11,T1_M11,T2_M11,T3_M11,T4_M11,T5_M11,U1_M11,ZSPAN_M11,X2_M11,X0_M11,X1_M11
2022-02-07 07:00:00,,0833.1,4.99,0.00,22.4,21.7,00.0,31.4,24.1,05.7,0000.0,0000.75,0001.21,0000.61
2022-02-07 07:01:00,,0833.2,5.00,0.00,22.4,21.7,00.0,31.4,24.1,05.7,0000.0,0000.79,0001.39,0000.61
2022-02-07 07:02:00,,0833.1,4.98,0.00,22.4,21.6,00.0,31.4,24.1,05.7,0000.0,0000.78,0001.36,0000.61
2022-02-07 07:03:00,,0833.1,5.01,0.00,22.4,21.6,00.0,31.4,24.1,05.7,0000.0,0000.77,0001.33,0000.60
2022-02-07 07:04:00,,0833.2,5.00,0.00,22.4,21.6,00.0,31.4,24.1,05.7,0000.0,0000.75,0001.32,0000.59
2022-02-07 07:05:00,,0833.1,5.00,0.00,22.3,21.6,00.0,31.4,24.0,05.6,0000.0,0000.72,0001.28,0000.57
2022-02-07 07:06:00,,0833.1,5.00,0.00,22.4,22.1,00.0,31.4,24.2,05.6,0000.0,0000.70,0001.26,0000.56
2022-02-07 07:07:00,,0833.2,4.99,0.00,22.5,22.9,00.0,31.4,24.4,05.6,0000.0,0000.67,0001.22,0000.54
2022-02-07 07:08:00,,0833.2,5.00,0.00,22.6,23.2,00.0,31.5,24.6,05.5,0000.0,0000.66,0001.21,0000.53
2022-02-07 07:09:00,,0833.2,5.00,0.00,22.7,23.1,00.0,31.5,24.6,05.5,0000.0,0000.63,0001.10,0000.52
2022-02-07 07:10:00,,0833.1,5.00,0.00,22.7,22.9,00.0,31.5,24.6,05.5,0000.0,0000.59,0000.98,0000.50
2022-02-07 07:11:00,,0833.1,4.99,0.00,22.7,22.7,00.0,31.5,24.5,05.5,0000.0,0000.57,0000.94,0000.47
2022-02-07 07:12:00,,0833.1,5.02,0.00,22.7,22.5,00.0,31.5,24.5,05.5,0000.0,0000.52,0000.75,0000.45
2022-02-07 07:13:00,,0833.1,4.99,0.00,22.7,22.4,00.0,31.5,24.5,05.4,0000.0,0000.52,0000.76,0000.44
2022-02-07 07:14:00,,0833.1,4.99,0.00,22.7,22.3,00.0,31.5,24.4,05.5,0000.0,0000.51,0000.77,0000.43
2022-02-07 07:15:00,,0833.1,5.01,0.00,22.7,22.2,00.0,31.5,24.4,05.4,0000.0,0000.50,0000.73,0000.42
2022-02-07 07:16:00,,0833.1,5.00,0.00,22.6,22.1,00.0,31.5,24.4,05.4,0000.0,0000.48,0000.70,0000.42
2022-02-07 07:17:00,,0833.1,5.01,0.00,22.6,22.1,00.0,31.6,24.3,05.5,0000.0,0000.50,0000.74,0000.42
2022-02-07 07:18:00,,0833.1,4.99,0.00,22.6,22.0,00.0,31.6,24.3,05.5,0000.0,0000.49,0000.73,0000.42
2022-02-07 07:19:00,,0833.1,5.00,0.00,22.6,22.0,00.0,31.5,24.3,05.5,0000.0,0000.50,0000.75,0000.41
2022-02-07 07:20:00,,0833.1,5.02,0.00,22.6,21.9,00.0,31.5,24.4,05.5,0000.0,0000.49,0000.74,0000.41
2022-02-07 07:21:00,,0833.1,4.99,0.00,22.6,21.9,00.0,31.5,24.3,05.5,0000.0,0000.49,0000.73,0000.40
2022-02-07 07:22:00,,0833.1,5.01,0.00,22.6,21.9,00.0,31.5,24.3,05.6,0000.0,0000.48,0000.68,0000.40
2022-02-07 07:23:00,,0833.1,5.00,0.00,22.6,21.8,00.0,31.5,24.3,05.6,0000.0,0000.49,0000.70,0000.41
2022-02-07 07:24:00,,0833.1,5.00,0.00,22.6,21.8,00.0,31.5,24.3,05.6,0000.0,0000.51,0000.74,0000.41
2022-02-07 07:25:00,,0833.2,4.99,0.00,22.5,21.7,00.0,31.5,24.3,05.7,0000.0,0000.52,0000.75,0000.42
2022-02-07 07:26:00,,0833.3,5.01,0.00,22.5,21.7,00.0,31.5,24.2,05.7,0000.0,0000.57,0000.88,0000.43
2022-02-07 07:27:00,,0833.3,4.99,0.00,22.5,21.7,00.0,31.5,24.2,05.8,0000.0,0000.59,0000.94,0000.45
2022-02-07 07:28:00,,0833.3,5.00,0.00,22.5,21.7,00.0,31.5,24.2,05.8,0000.0,0000.60,0000.92,0000.47
2022-02-07 07:29:00,,0833.3,5.00,0.00,22.5,21.7,00.0,31.5,24.2,05.7,0000.0,0000.68,0001.04,0000.51
2022-02-07 07:30:00,,0833.2,5.00,0.00,22.5,21.7,00.0,31.5,24.2,05.7,0000.0,0000.73,0001.12,0000.57
2022-02-07 07:31:00,,0833.2,5.00,0.00,22.4,21.6,00.0,31.5,24.1,05.6,0000.0,0000.76,0001.16,0000.60
2022-02-07 07:32:00,,0833.3,4.99,0.00,22.4,21.6,00.0,31.4,24.1,05.6,0000.0,0000.80,0001.21,0000.63
2022-02-07 07:33:00,,0833.3,5.02,0.00,22.4,21.6,00.0,31.4,24.0,05.7,0000.0,0000.82,0001.23,0000.66
2022-02-07 07:34:00,,0833.3,4.98,0.00,22.4,21.6,00.0,31.4,24.0,05.6,0000.0,0000.83,0001.22,0000.68
2022-02-07 07:35:00,,0833.4,5.00,0.00,22.4,21.6,00.0,31.4,24.0,05.7,0000.0,0000.82,0001.18,0000.70
2022-02-07 07:36:00,,0833.4,5.00,0.00,22.4,22.2,00.0,31.4,24.2,05.7,0000.0,0000.83,0001.17,0000.71
2022-02-07 07:37:00,,0833.4,4.99,0.00,22.5,22.9,00.0,31.5,24.4,05.7,0000.0,0000.81,0001.06,0000.73
2022-02-07 07:38:00,,0833.4,5.01,0.00,22.7,23.2,00.0,31.5,24.6,05.6,0000.0,0000.81,0001.02,0000.73
2022-02-07 07:39:00,,0833.3,5.00,0.00,22.7,23.1,00.0,31.5,24.7,05.6,0000.0,0000.80,0001.01,0000.73
2022-02-07 07:40:00,,0833.3,5.00,0.00,22.7,22.9,00.0,31.5,24.6,05.5,0000.0,0000.74,0000.90,0000.70
2022-02-07 07:41:00,,0833.3,5.01,0.00,22.7,22.7,00.0,31.5,24.6,05.5,0000.0,0000.69,0000.84,0000.66
2022-02-07 07:42:00,,0833.3,5.00,0.00,22.7,22.5,00.0,31.6,24.5,05.6,0000.0,0000.69,0000.83,0000.64
2022-02-07 07:43:00,,0833.2,4.99,0.00,22.7,22.4,00.0,31.6,24.4,05.5,0000.0,0000.66,0000.80,0000.62
2022-02-07 07:44:00,,0833.2,5.00,0.00,22.7,22.3,00.0,31.6,24.4,05.5,0000.0,0000.65,0000.79,0000.59
2022-02-07 07:45:00,,0833.2,4.99,0.00,22.6,22.1,00.0,31.6,24.4,05.5,0000.0,0000.63,0000.77,0000.57
2022-02-07 07:46:00,,0833.2,5.00,0.00,22.6,22.1,00.0,31.6,24.3,05.5,0000.0,0000.61,0000.75,0000.55
2022-02-07 07:47:00,,0833.2,5.00,0.00,22.6,22.0,00.0,31.5,24.4,05.5,0000.0,0000.59,0000.74,0000.52
2022-02-07 07:48:00,,0833.2,5.00,0.00,22.6,22.0,00.0,31.6,24.3,05.5,0000.0,0000.57,0000.74,0000.50
2022-02-07 07:49:00,,0833.2,5.00,0.00,22.6,21.9,00.0,31.5,24.3,05.5,0000.0,0000.57,0000.75,0000.48
2022-02-07 07:50:00,,0833.2,5.00,0.00,22.6,21.9,00.0,31.5,24.3,05.5,0000.0,0000.57,0000.77,0000.47
2022-02-07 07:51:00,,0833.1,4.99,0.00,22.6,21.9,00.0,31.5,24.3,05.5,0000.0,0000.56,0000.76,0000.47
2022-02-07 07:52:00,,0833.1,5.00,0.00,22.6,21.9,00.0,31.5,24.3,05.4,0000.0,0000.54,0000.73,0000.45
2022-02-07 07:53:00,,0833.1,5.01,0.00,22.5,21.8,00.0,31.5,24.3,05.4,0000.0,0000.51,0000.68,0000.43
2022-02-07 07:54:00,,0833.2,4.99,0.00,22.5,21.8,00.0,31.5,24.3,05.4,0000.0,0000.50,0000.65,0000.43
2022-02-07 07:55:00,,0833.1,4.99,0.00,22.5,21.8,00.0,31.5,24.3,05.5,0000.0,0000.48,0000.63,0000.42
2022-02-07 07:56:00,,0833.1,5.01,0.00,22.5,21.8,00.0,31.5,24.2,05.5,0000.0,0000.48,0000.65,0000.42
2022-02-07 07:57:00,,0833.1,5.00,0.00,22.5,21.7,00.0,31.5,24.2,05.5,0000.0,0000.50,0000.74,0000.42
2022-02-07 07:58:00,,0833.1,4.99,0.00,22.5,21.7,00.0,31.5,24.2,05.5,0000.0,0000.50,0000.74,0000.43
2022-02-07 07:59:00,,0833.1,5.01,0.00,22.5,21.7,00.0,31.5,24.2,05.5,0000.0,0000.50,0000.78,0000.42
